DW6119 Weather Reports


Display with metric or nautical units.
time (UTC)temp
F
wind
direction
speed
MPH
gust
MPH
rain 1hr
in
rain 24hr
in
rain mn
in
humidity
%
barometer
mb
20260504041903 56 155 0.0 1.0 0.00 0.00 0.00 62 1018.5
20260504041403 56 62 0.0 1.0 0.00 0.00 0.00 63 1018.3
20260504040903 56 248 0.0 1.0 0.00 0.00 0.00 64 1018.3
20260504040405 56 245 1.0 1.0 0.00 0.00 0.00 63 1018.3
20260504035403 57 72 0.0 1.0 0.00 0.00 0.00 62 1018.3
20260504034404 57 72 0.0 1.0 0.00 0.00 0.00 62 1018.4
20260504033904 58 120 0.0 1.0 0.00 0.00 0.00 62 1018.3
20260504033403 58 233 0.0 1.0 0.00 0.00 0.00 61 1018.3
20260504032906 58 195 0.0 1.0 0.00 0.00 0.00 60 1018.3
20260504032404 58 258 1.0 1.0 0.00 0.00 0.00 61 1018.3
20260504031903 58 42 0.0 1.0 0.00 0.00 0.00 61 1018.3
20260504031404 58 66 0.0 1.0 0.00 0.00 0.00 60 1018.2
20260504030404 58 99 0.0 1.0 0.00 0.00 0.00 58 1017.9
20260504025903 58 187 0.0 1.0 0.00 0.00 0.00 59 1017.9
20260504025404 58 228 0.0 1.0 0.00 0.00 0.00 60 1017.9
20260504024904 58 216 0.0 1.0 0.00 0.00 0.00 60 1017.9
20260504024404 58 180 0.0 0.0 0.00 0.00 0.00 60 1017.9
20260504023904 58 91 0.0 0.0 0.00 0.00 0.00 60 1017.9
20260504022904 58 83 0.0 0.0 0.00 0.00 0.00 60 1018.1
20260504022406 58 83 0.0 0.0 0.00 0.00 0.00 61 1018.3
20260504021904 58 83 0.0 0.0 0.00 0.00 0.00 61 1018.3
20260504021403 58 83 0.0 0.0 0.00 0.00 0.00 61 1018.2
20260504020904 58 93 0.0 0.0 0.00 0.00 0.00 62 1018.2
20260504020403 58 50 0.0 0.0 0.00 0.00 0.00 62 1018.1
20260504015906 58 44 0.0 0.0 0.00 0.00 0.00 62 1018.1
20260504015404 58 44 0.0 0.0 0.00 0.00 0.00 62 1018.3
20260504014904 58 54 0.0 0.0 0.00 0.00 0.00 60 1018.3
20260504014403 58 26 0.0 0.0 0.00 0.00 0.00 60 1017.9
20260504013904 58 41 0.0 0.0 0.00 0.00 0.00 61 1018.3
20260504013403 59 47 0.0 0.0 0.00 0.00 0.00 61 1017.9
20260504012903 59 49 0.0 0.0 0.00 0.00 0.00 61 1018.3
20260504012405 59 49 0.0 0.0 0.00 0.00 0.00 60 1017.9
20260504011903 59 47 0.0 1.0 0.00 0.00 0.00 60 1017.9
20260504011404 59 47 0.0 1.0 0.00 0.00 0.00 60 1018.3
20260504010905 59 72 0.0 1.0 0.00 0.00 0.00 58 1018.1
20260504005905 59 245 0.0 0.0 0.00 0.00 0.00 58 1018.3
20260504005403 59 185 0.0 1.0 0.00 0.00 0.00 58 1018.3
20260504004903 60 215 0.0 1.0 0.00 0.00 0.00 59 1018.3
20260504004404 60 261 0.0 1.0 0.00 0.00 0.00 57 1018.1
20260504003904 60 60 0.0 1.0 0.00 0.00 0.00 56 1018.5
20260504003404 60 74 0.0 0.0 0.00 0.00 0.00 53 1018.1
20260504002903 60 74 0.0 0.0 0.00 0.00 0.00 53 1018.1
20260504002404 61 74 0.0 0.0 0.00 0.00 0.00 53 1018.3
20260504001904 61 73 0.0 1.0 0.00 0.00 0.00 53 1018.3
20260504001403 61 73 0.0 1.0 0.00 0.00 0.00 54 1018.3
20260504000404 61 109 0.0 0.0 0.00 0.00 0.00 52 1018.3
20260503235904 61 206 0.0 0.0 0.00 0.00 0.00 52 1018.3
20260503235404 61 205 0.0 0.0 0.00 0.00 0.00 53 1018.3
20260503234903 61 236 0.0 1.0 0.00 0.00 0.00 52 1018.5
20260503234404 61 196 0.0 1.0 0.00 0.00 0.00 52 1018.3
20260503233905 61 62 0.0 1.0 0.00 0.00 0.00 53 1018.3
20260503233405 61 71 1.0 1.0 0.00 0.00 0.00 52 1018.6
20260503231904 61 216 0.0 0.0 0.00 0.00 0.00 53 1018.5
20260503231404 61 215 0.0 0.0 0.00 0.00 0.00 55 1018.5
20260503230904 61 215 0.0 0.0 0.00 0.00 0.00 55 1018.4
20260503230403 61 225 0.0 0.0 0.00 0.00 0.00 55 1018.3
20260503225904 61 54 0.0 0.0 0.00 0.00 0.00 54 1018.6
20260503225404 61 65 0.0 0.0 0.00 0.00 0.00 53 1018.6
20260503224904 61 66 0.0 0.0 0.00 0.00 0.00 52 1018.6
20260503224403 62 67 0.0 0.0 0.00 0.00 0.00 53 1018.7
20260503223904 62 72 0.0 1.0 0.00 0.00 0.00 51 1018.6
20260503223404 62 87 0.0 1.0 0.00 0.00 0.00 51 1018.5
20260503222903 61 233 0.0 0.0 0.00 0.00 0.00 50 1018.6
20260503222404 61 243 0.0 0.0 0.00 0.00 0.00 50 1018.6
20260503221403 61 346 0.0 1.0 0.00 0.00 0.00 52 1018.3
20260503220903 61 258 0.0 1.0 0.00 0.00 0.00 53 1018.6
20260503220405 62 68 0.0 1.0 0.00 0.00 0.00 51 1018.3
20260503215904 61 77 0.0 1.0 0.00 0.00 0.00 51 1018.4
20260503215404 62 75 0.0 1.0 0.00 0.00 0.00 51 1018.3
20260503214904 62 69 0.0 0.0 0.00 0.00 0.00 51 1018.3
20260503214404 62 137 0.0 1.0 0.00 0.00 0.00 48 1018.3
20260503213904 62 221 0.0 1.0 0.00 0.00 0.00 49 1018.5
20260503213404 62 247 0.0 1.0 0.00 0.00 0.00 50 1018.3
20260503212906 62 69 0.0 1.0 0.00 0.00 0.00 48 1018.1
20260503212405 62 253 1.0 1.0 0.00 0.00 0.00 49 1018.3
20260503211904 62 67 0.0 1.0 0.00 0.00 0.00 49 1018.3
20260503211404 62 242 1.0 1.0 0.00 0.00 0.00 49 1018.3
20260503210904 62 80 0.0 1.0 0.00 0.00 0.00 48 1018.3
20260503205404 63 126 0.0 1.0 0.00 0.00 0.00 48 1018.1
20260503204903 63 99 0.0 1.0 0.00 0.00 0.00 49 1018.2
20260503204404 63 145 0.0 1.0 0.00 0.00 0.00 49 1018.2
20260503203904 64 121 0.0 1.0 0.00 0.00 0.00 46 1018.3
20260503202904 63 96 0.0 1.0 0.00 0.00 0.00 48 1018.3
20260503202404 63 135 0.0 1.0 0.00 0.00 0.00 48 1018.2
20260503201403 64 60 0.0 1.0 0.00 0.00 0.00 48 1018.3
20260503200905 64 72 1.0 2.0 0.00 0.00 0.00 47 1018.0
20260503200404 63 252 1.0 2.0 0.00 0.00 0.00 48 1018.0
20260503195405 64 87 1.0 1.0 0.00 0.00 0.00 46 1017.9
20260503194906 64 237 0.0 1.0 0.00 0.00 0.00 47 1018.0
20260503194405 64 88 1.0 1.0 0.00 0.00 0.00 46 1017.9
20260503193904 65 108 0.0 1.0 0.00 0.00 0.00 45 1018.1
20260503193405 65 90 1.0 1.0 0.00 0.00 0.00 46 1017.9
20260503192904 65 191 0.0 1.0 0.00 0.00 0.00 46 1017.9
20260503192404 65 245 0.0 1.0 0.00 0.00 0.00 46 1017.6
20260503191905 65 107 0.0 1.0 0.00 0.00 0.00 46 1017.6
20260503190904 66 113 0.0 1.0 0.00 0.00 0.00 46 1017.6
20260503190404 66 114 0.0 1.0 0.00 0.00 0.00 45 1017.6
20260503185904 66 120 0.0 1.0 0.00 0.00 0.00 44 1017.6
20260503185403 67 250 1.0 1.0 0.00 0.00 0.00 45 1017.3
20260503184906 67 84 0.0 0.0 0.00 0.00 0.00 44 1017.5
20260503184404 67 98 0.0 1.0 0.00 0.00 0.00 44 1017.3
20260503183904 67 196 0.0 1.0 0.00 0.00 0.00 44 1017.3
20260503183404 68 170 0.0 0.0 0.00 0.00 0.00 43 1017.1
20260503182905 68 144 0.0 0.0 0.00 0.00 0.00 43 1017.1
20260503181404 69 125 0.0 0.0 0.00 0.00 0.00 42 1016.9
20260503180905 70 113 0.0 1.0 0.00 0.00 0.00 41 1016.9
20260503180404 70 118 0.0 1.0 0.00 0.00 0.00 42 1016.6
20260503175904 70 75 1.0 1.0 0.00 0.00 0.00 40 1016.7
20260503174904 71 85 0.0 2.0 0.00 0.00 0.00 40 1016.6
20260503173904 72 75 1.0 3.0 0.00 0.00 0.00 40 1016.6
20260503173404 73 103 0.0 3.0 0.00 0.00 0.00 36 1016.4
20260503172406 74 247 0.0 5.0 0.00 0.00 0.00 34 1016.5
20260503171904 73 241 2.0 7.0 0.00 0.00 0.00 33 1016.6
20260503170904 74 240 3.0 7.0 0.00 0.00 0.00 33 1016.5
20260503170404 74 223 1.0 7.0 0.00 0.00 0.00 34 1016.6
20260503150904 79 253 3.0 12.0 0.00 0.00 0.00 31 1016.9
20260503150404 79 212 3.0 12.0 0.00 0.00 0.00 31 1017.3
20260503131404 76 243 5.0 9.0 0.00 0.00 0.00 34 1017.9
20260503130904 76 31 3.0 9.0 0.00 0.00 0.00 34 1017.9
20260503130404 77 239 4.0 9.0 0.00 0.00 0.00 33 1017.9
20260503110404 76 255 5.0 10.0 0.00 0.00 0.00 34 1018.3
20260503090405 67 94 0.0 2.0 0.00 0.00 0.00 46 1020.1
20260503081404 65 53 0.0 3.0 0.00 0.00 0.00 49 1020.7
20260503080905 64 38 1.0 3.0 0.00 0.00 0.00 50 1020.7
20260503080404 64 42 0.0 2.0 0.00 0.00 0.00 50 1021.0
20260503072906 61 28 1.0 7.0 0.00 0.00 0.00 54 1021.3
20260503072404 61 49 1.0 7.0 0.00 0.00 0.00 54 1021.3
20260503071904 61 48 0.0 3.0 0.00 0.00 0.00 55 1021.3
20260503071404 61 79 0.0 3.0 0.00 0.00 0.00 55 1021.3
20260503070905 60 34 1.0 3.0 0.00 0.00 0.00 55 1021.3
20260503070404 60 111 2.0 3.0 0.00 0.00 0.00 56 1021.7
20260503054905 57 66 2.0 7.0 0.00 0.00 0.00 59 1022.0
20260503053905 56 139 3.0 7.0 0.00 0.00 0.00 60 1022.0
20260503053405 56 76 2.0 7.0 0.00 0.00 0.00 61 1022.0
20260503052906 55 36 2.0 5.0 0.00 0.00 0.00 60 1022.0
20260503052404 55 69 1.0 3.0 0.00 0.00 0.00 60 1022.0
20260503051404 54 220 0.0 5.0 0.00 0.00 0.00 62 1022.0
20260503050905 54 102 2.0 5.0 0.00 0.00 0.00 63 1022.0
20260503050404 54 117 3.0 5.0 0.00 0.00 0.00 64 1022.3
20260503045905 53 148 0.0 2.0 0.00 0.00 0.00 64 1022.1
20260503045404 53 240 1.0 3.0 0.00 0.00 0.00 65 1022.0
20260503044905 53 117 0.0 3.0 0.00 0.00 0.00 65 1022.1
20260503044405 53 56 1.0 3.0 0.00 0.00 0.00 66 1022.0
20260503043904 53 114 0.0 1.0 0.00 0.00 0.00 67 1022.1
20260503043404 53 248 0.0 1.0 0.00 0.00 0.00 66 1022.0
20260503042904 54 238 1.0 1.0 0.00 0.00 0.00 63 1022.0
20260503042405 55 60 0.0 3.0 0.00 0.00 0.00 62 1021.9